When you browse on this site, cookies collect data to enhance your experience and personalize the content and advertising you see.
Visit our Privacy Policy to learn more. By continuing to use the site, you agree to this use of cookies and data.
  • In Latvia
  • List of Countries
  • For 7 days
  • Water Temperature
  • Satellite Maps
  • Weather Map
  • Weather Widgets
  • user-avatar
    Login

    Hourly Weather Kipungo

    Today, 18 June, Tuesday

    Time Temperature Precipitation Wind Pressure Humidity
    00:00 +12°C° 0 mm 0 mps 654 mmHg 47%
    01:00 +11°C° 0 mm 0 mps 654 mmHg 51%
    02:00 +10°C° 0 mm 0 mps 654 mmHg 54%
    03:00 +10°C° 0 mm 0 mps 654 mmHg 56%
    04:00 +9°C° 0 mm 0 mps 653 mmHg 58%
    05:00 +9°C° 0 mm 0 mps 654 mmHg 58%
    06:00 +9°C° 0 mm 0 mps 654 mmHg 58%
    07:00 +10°C° 0 mm 0 mps 655 mmHg 57%
    08:00 +15°C° 0 mm 1 mps 656 mmHg 48%
    09:00 +19°C° 0 mm 2 mps 657 mmHg 38%
    10:00 +24°C° 0 mm 3 mps 658 mmHg 28%
    11:00 +26°C° 0 mm 3 mps 658 mmHg 25%
    12:00 +28°C° 0 mm 3 mps 657 mmHg 22%
    13:00 +30°C° 0 mm 2 mps 657 mmHg 19%
    14:00 +30°C° 0 mm 2 mps 657 mmHg 18%
    15:00 +30°C° 0 mm 2 mps 656 mmHg 18%
    16:00 +30°C° 0 mm 2 mps 656 mmHg 18%
    17:00 +26°C° 0 mm 2 mps 655 mmHg 23%
    18:00 +23°C° 0 mm 2 mps 655 mmHg 29%
    19:00 +20°C° 0 mm 1 mps 655 mmHg 34%
    20:00 +18°C° 0 mm 1 mps 655 mmHg 37%
    21:00 +16°C° 0 mm 1 mps 655 mmHg 40%
    22:00 +15°C° 0 mm 1 mps 655 mmHg 42%
    23:00 +14°C° 0 mm 1 mps 655 mmHg 46%

    Tomorrow, 19 June, Wednesday

    Time Temperature Precipitation Wind Pressure Humidity
    00:00 +13°C° 0 mm 1 mps 655 mmHg 50%
    01:00 +12°C° 0 mm 1 mps 654 mmHg 54%
    02:00 +11°C° 0 mm 1 mps 654 mmHg 57%
    03:00 +10°C° 0 mm 1 mps 654 mmHg 61%
    04:00 +9°C° 0 mm 0 mps 654 mmHg 65%
    05:00 +9°C° 0 mm 0 mps 654 mmHg 65%
    06:00 +10°C° 0 mm 1 mps 655 mmHg 64%
    07:00 +10°C° 0 mm 1 mps 655 mmHg 64%
    08:00 +14°C° 0 mm 2 mps 656 mmHg 52%
    09:00 +18°C° 0 mm 3 mps 657 mmHg 40%
    10:00 +22°C° 0 mm 4 mps 658 mmHg 27%
    11:00 +25°C° 0 mm 4 mps 658 mmHg 24%
    12:00 +27°C° 0 mm 4 mps 658 mmHg 20%
    13:00 +29°C° 0 mm 3 mps 657 mmHg 16%
    14:00 +29°C° 0 mm 3 mps 657 mmHg 16%
    15:00 +29°C° 0 mm 3 mps 657 mmHg 16%
    16:00 +29°C° 0 mm 2 mps 656 mmHg 16%
    17:00 +26°C° 0 mm 2 mps 656 mmHg 21%
    18:00 +22°C° 0 mm 1 mps 655 mmHg 26%
    19:00 +19°C° 0 mm 1 mps 655 mmHg 31%
    20:00 +18°C° 0 mm 1 mps 655 mmHg 34%
    21:00 +16°C° 0 mm 1 mps 656 mmHg 37%
    22:00 +15°C° 0 mm 1 mps 656 mmHg 40%
    23:00 +14°C° 0 mm 1 mps 655 mmHg 44%

    Day after tomorrow, 20 June, Thursday

    Time Temperature Precipitation Wind Pressure Humidity
    00:00 +13°C° 0 mm 1 mps 655 mmHg 48%
    01:00 +12°C° 0 mm 1 mps 655 mmHg 52%
    02:00 +10°C° 0 mm 0 mps 654 mmHg 56%
    03:00 +9°C° 0 mm 0 mps 654 mmHg 59%
    04:00 +8°C° 0 mm 0 mps 654 mmHg 62%
    05:00 +9°C° 0 mm 0 mps 654 mmHg 62%
    06:00 +9°C° 0 mm 0 mps 655 mmHg 62%
    07:00 +9°C° 0 mm 0 mps 655 mmHg 62%
    08:00 +14°C° 0 mm 1 mps 656 mmHg 51%
    09:00 +18°C° 0 mm 2 mps 657 mmHg 40%
    10:00 +24°C° 0 mm 3 mps 658 mmHg 28%
    11:00 +26°C° 0 mm 3 mps 658 mmHg 24%
    12:00 +28°C° 0 mm 2 mps 658 mmHg 21%
    13:00 +30°C° 0 mm 2 mps 657 mmHg 17%
    14:00 +30°C° 0 mm 2 mps 657 mmHg 16%
    15:00 +30°C° 0 mm 2 mps 657 mmHg 16%
    16:00 +30°C° 0 mm 1 mps 656 mmHg 15%
    17:00 +26°C° 0 mm 1 mps 656 mmHg 21%
    18:00 +23°C° 0 mm 1 mps 655 mmHg 26%
    19:00 +19°C° 0 mm 1 mps 655 mmHg 32%
    20:00 +18°C° 0 mm 1 mps 655 mmHg 35%
    21:00 +16°C° 0 mm 1 mps 655 mmHg 37%
    22:00 +15°C° 0 mm 1 mps 656 mmHg 40%
    23:00 +14°C° 0 mm 1 mps 655 mmHg 44%

    21 June, Friday

    Time Temperature Precipitation Wind Pressure Humidity
    00:00 +12°C° 0 mm 0 mps 655 mmHg 48%
    01:00 +11°C° 0 mm 0 mps 654 mmHg 52%
    02:00 +10°C° 0 mm 0 mps 654 mmHg 55%
    03:00 +10°C° 0 mm 0 mps 654 mmHg 58%
    04:00 +9°C° 0 mm 0 mps 654 mmHg 61%
    05:00 +9°C° 0 mm 0 mps 654 mmHg 62%
    06:00 +9°C° 0 mm 0 mps 654 mmHg 62%
    07:00 +10°C° 0 mm 0 mps 655 mmHg 63%
    08:00 +15°C° 0 mm 1 mps 656 mmHg 52%
    09:00 +19°C° 0 mm 2 mps 657 mmHg 42%
    10:00 +24°C° 0 mm 3 mps 658 mmHg 31%
    11:00 +26°C° 0 mm 3 mps 657 mmHg 27%
    12:00 +28°C° 0 mm 3 mps 657 mmHg 22%
    13:00 +30°C° 0 mm 3 mps 657 mmHg 18%
    14:00 +30°C° 0 mm 2 mps 656 mmHg 17%
    15:00 +30°C° 0 mm 2 mps 656 mmHg 17%
    16:00 +30°C° 0 mm 2 mps 655 mmHg 16%
    17:00 +26°C° 0 mm 2 mps 655 mmHg 21%
    18:00 +23°C° 0 mm 2 mps 654 mmHg 26%
    19:00 +19°C° 0 mm 1 mps 654 mmHg 32%
    20:00 +18°C° 0 mm 1 mps 654 mmHg 34%
    21:00 +16°C° 0 mm 1 mps 654 mmHg 36%
    22:00 +15°C° 0 mm 1 mps 655 mmHg 38%
    23:00 +14°C° 0 mm 1 mps 654 mmHg 42%

    22 June, Saturday

    Time Temperature Precipitation Wind Pressure Humidity
    00:00 +11°C° 0 mm 0 mps 653 mmHg 46%
    01:00 +10°C° 0 mm 0 mps 653 mmHg 50%
    02:00 +9°C° 0 mm 0 mps 653 mmHg 52%
    03:00 +9°C° 0 mm 0 mps 652 mmHg 54%
    04:00 +8°C° 0 mm 0 mps 652 mmHg 55%
    05:00 +9°C° 0 mm 0 mps 653 mmHg 55%
    06:00 +9°C° 0 mm 0 mps 653 mmHg 55%
    07:00 +9°C° 0 mm 0 mps 654 mmHg 54%
    08:00 +14°C° 0 mm 1 mps 655 mmHg 44%
    09:00 +19°C° 0 mm 2 mps 656 mmHg 34%
    10:00 +24°C° 0 mm 2 mps 657 mmHg 24%
    11:00 +26°C° 0 mm 2 mps 657 mmHg 21%
    12:00 +28°C° 0 mm 2 mps 657 mmHg 18%
    13:00 +30°C° 0 mm 2 mps 656 mmHg 15%
    14:00 +30°C° 0 mm 1 mps 656 mmHg 15%
    15:00 +30°C° 0 mm 1 mps 655 mmHg 14%
    16:00 +30°C° 0 mm 1 mps 655 mmHg 13%
    17:00 +26°C° 0 mm 1 mps 654 mmHg 18%
    18:00 +20°C° 0 mm 0 mps 654 mmHg 22%
    19:00 +16°C° 0 mm 0 mps 653 mmHg 26%
    20:00 +16°C° 0 mm 0 mps 654 mmHg 28%
    21:00 +15°C° 0 mm 0 mps 654 mmHg 29%
    22:00 +14°C° 0 mm 0 mps 654 mmHg 30%
    23:00 +14°C° 0 mm 1 mps 654 mmHg 32%

    23 June, Sunday

    Time Temperature Precipitation Wind Pressure Humidity
    00:00 +13°C° 0 mm 1 mps 654 mmHg 34%
    01:00 +12°C° 0 mm 1 mps 653 mmHg 36%
    02:00 +11°C° 0 mm 1 mps 653 mmHg 37%
    03:00 +10°C° 0 mm 0 mps 653 mmHg 38%
    04:00 +9°C° 0 mm 0 mps 653 mmHg 39%
    05:00 +9°C° 0 mm 0 mps 653 mmHg 39%
    06:00 +9°C° 0 mm 0 mps 653 mmHg 39%
    07:00 +10°C° 0 mm 1 mps 654 mmHg 39%
    08:00 +15°C° 0 mm 1 mps 655 mmHg 32%
    09:00 +19°C° 0 mm 2 mps 656 mmHg 25%
    10:00 +25°C° 0 mm 2 mps 657 mmHg 18%
    11:00 +27°C° 0 mm 2 mps 657 mmHg 16%
    12:00 +29°C° 0 mm 2 mps 657 mmHg 14%
    13:00 +31°C° 0 mm 2 mps 657 mmHg 12%
    14:00 +31°C° 0 mm 1 mps 656 mmHg 12%
    15:00 +31°C° 0 mm 1 mps 656 mmHg 12%
    16:00 +31°C° 0 mm 1 mps 655 mmHg 12%
    17:00 +27°C° 0 mm 1 mps 655 mmHg 15%
    18:00 +23°C° 0 mm 1 mps 654 mmHg 19%
    19:00 +19°C° 0 mm 1 mps 654 mmHg 23%
    20:00 +18°C° 0 mm 1 mps 654 mmHg 30%
    21:00 +15°C° 0 mm 2 mps 654 mmHg 37%
    22:00 +14°C° 0 mm 2 mps 654 mmHg 43%
    23:00 +13°C° 0 mm 2 mps 654 mmHg 54%
    Show more